Date String (YYYY-MM-DD hh:mm:ss) UTC,Instrument flags,Ambient pressure (hPa),Sample flow (lpm),Bypass flow (lpm),Sample temperature (°C),Ambient temperature (°C),ASC tube jacket temperature (°C),LED temperature (°C),Box temperature (°C),Sample RH (%),Span deviation,Mass concentration (μg/m³),Mass concentration (μg/m³),Mass concentration (μg/m³)
DateTimeUTC,F1_M11,P_M11,Q1_M11,Q2_M11,T1_M11,T2_M11,T3_M11,T4_M11,T5_M11,U1_M11,ZSPAN_M11,X0_M11,X2_M11,X1_M11
2022-11-12 23:00:00,,0825.1,4.99,0.00,25.6,24.3,00.0,34.3,27.6,07.8,0000.3,0015.38,0009.08,0008.22
2022-11-12 23:01:00,,0825.1,5.01,0.00,25.6,24.3,00.0,34.3,27.6,07.8,0001.3,0015.09,0009.07,0008.21
2022-11-12 23:02:00,,0825.1,5.00,0.00,25.6,24.3,00.0,34.3,27.6,07.8,0001.2,0014.84,0009.04,0008.18
2022-11-12 23:03:00,,0825.0,4.99,0.00,25.6,24.3,00.0,34.3,27.6,07.8,0001.1,0015.02,0009.09,0008.17
2022-11-12 23:04:00,,0825.1,5.00,0.00,25.6,24.3,00.0,34.4,27.6,07.8,0001.5,0014.93,0009.08,0008.18
2022-11-12 23:05:00,,0825.0,5.00,0.00,25.6,24.4,00.0,34.4,27.6,07.8,0001.3,0015.02,0009.09,0008.18
2022-11-12 23:06:00,,0825.1,5.00,0.00,25.6,24.4,00.0,34.4,27.6,07.8,0000.6,0016.19,0009.14,0008.20
2022-11-12 23:07:00,,0825.0,5.00,0.00,25.7,24.4,00.0,34.4,27.6,07.8,0000.9,0016.04,0009.16,0008.21
2022-11-12 23:08:00,,0825.1,5.00,0.00,25.7,24.4,00.0,34.4,27.6,07.8,0001.3,0015.89,0009.15,0008.21
2022-11-12 23:09:00,,0825.0,5.00,0.00,25.7,24.4,00.0,34.4,27.6,07.8,0001.7,0016.02,0009.18,0008.22
2022-11-12 23:10:00,,0825.1,4.99,0.00,25.7,24.4,00.0,34.4,27.6,07.7,0001.4,0015.98,0009.19,0008.23
2022-11-12 23:11:00,,0825.1,4.99,0.00,25.7,24.4,00.0,34.4,27.6,07.7,0002.1,0016.12,0009.19,0008.25
2022-11-12 23:12:00,,0825.1,5.01,0.00,25.7,24.4,00.0,34.4,27.6,07.7,0001.8,0015.84,0009.19,0008.29
2022-11-12 23:13:00,,0825.1,5.00,0.00,25.7,24.4,00.0,34.4,27.6,07.6,0002.2,0016.37,0009.21,0008.32
2022-11-12 23:14:00,,0825.1,5.00,0.00,25.7,24.4,00.0,34.4,27.6,07.6,0002.7,0016.35,0009.12,0008.29
2022-11-12 23:15:00,,0825.1,5.00,0.00,25.7,24.4,00.0,34.4,27.6,07.6,0002.5,0017.71,0009.07,0008.26
2022-11-12 23:16:00,,0825.1,5.00,0.00,25.7,24.4,00.0,34.4,27.6,07.5,0002.7,0018.24,0009.01,0008.23
2022-11-12 23:17:00,,0825.1,5.01,0.00,25.7,24.4,00.0,34.4,27.6,07.5,0003.0,0017.14,0008.96,0008.16
2022-11-12 23:18:00,,0825.1,5.00,0.00,25.7,24.4,00.0,34.4,27.6,07.4,0003.2,0017.49,0008.89,0008.08
2022-11-12 23:19:00,,0825.1,5.00,0.00,25.7,24.4,00.0,34.4,27.6,07.4,0003.7,0017.40,0008.80,0008.02
2022-11-12 23:20:00,,0825.1,4.99,0.00,25.7,24.4,00.0,34.4,27.6,07.4,0003.5,0017.18,0008.70,0007.93
2022-11-12 23:21:00,,0825.1,4.99,0.00,25.7,24.4,00.0,34.4,27.7,07.4,0004.1,0017.10,0008.62,0007.84
2022-11-12 23:22:00,,0825.0,5.00,0.00,25.7,24.4,00.0,34.4,27.6,07.4,0003.8,0016.85,0008.53,0007.74
2022-11-12 23:23:00,,0825.0,5.00,0.00,25.7,24.4,00.0,34.5,27.7,07.3,0004.1,0016.44,0008.45,0007.65
2022-11-12 23:24:00,,0825.0,5.00,0.00,25.7,24.4,00.0,34.5,27.7,07.3,0003.9,0016.01,0008.35,0007.55
2022-11-12 23:25:00,,0825.0,5.01,0.00,25.7,24.4,00.0,34.5,27.7,07.2,0002.9,0015.90,0008.29,0007.49
2022-11-12 23:26:00,,0825.1,5.00,0.00,25.7,24.4,00.0,34.5,27.7,07.2,0003.5,0014.60,0008.20,0007.40
2022-11-12 23:27:00,,0825.1,5.00,0.00,25.7,24.4,00.0,34.5,27.7,07.2,0003.7,0014.29,0008.15,0007.33
2022-11-12 23:28:00,,0825.0,5.00,0.00,25.7,24.4,00.0,34.5,27.7,07.2,0003.3,0014.03,0008.06,0007.30
2022-11-12 23:29:00,,0825.1,5.00,0.00,25.7,24.4,00.0,34.5,27.6,07.2,0003.5,0013.20,0008.02,0007.27
2022-11-12 23:30:00,,0825.1,5.00,0.00,25.7,24.4,00.0,34.5,27.7,07.2,0003.3,0013.10,0007.97,0007.24
2022-11-12 23:31:00,,0825.1,5.00,0.00,25.7,24.4,00.0,34.5,27.7,07.2,0002.8,0013.14,0007.93,0007.22
2022-11-12 23:32:00,,0825.1,5.01,0.00,25.8,24.4,00.0,34.5,27.7,07.2,0002.5,0013.73,0007.89,0007.20
2022-11-12 23:33:00,,0825.1,4.99,0.00,25.8,24.4,00.0,34.5,27.7,07.2,0002.7,0014.71,0007.87,0007.19
2022-11-12 23:34:00,,0825.1,4.99,0.00,25.8,24.4,00.0,34.5,27.7,07.2,0002.5,0015.11,0007.85,0007.16
2022-11-12 23:35:00,,0825.1,5.00,0.00,25.7,24.4,00.0,34.5,27.7,07.2,0002.5,0015.16,0007.84,0007.15
2022-11-12 23:36:00,,0825.1,5.01,0.00,25.8,24.4,00.0,34.5,27.6,07.2,0003.0,0015.87,0007.83,0007.15
2022-11-12 23:37:00,,0825.1,5.00,0.00,25.8,24.4,00.0,34.5,27.7,07.2,0002.8,0016.08,0007.81,0007.15
2022-11-12 23:38:00,,0825.1,5.00,0.00,25.8,24.4,00.0,34.5,27.6,07.2,0002.7,0015.97,0007.81,0007.15
2022-11-12 23:39:00,,0825.1,5.00,0.00,25.8,24.4,00.0,34.5,27.7,07.2,0003.8,0016.20,0007.80,0007.15
2022-11-12 23:40:00,,0825.1,4.99,0.00,25.8,24.4,00.0,34.5,27.7,07.1,0003.7,0016.46,0007.77,0007.14
2022-11-12 23:41:00,,0825.1,5.00,0.00,25.8,24.4,00.0,34.5,27.7,07.2,0002.8,0017.40,0007.86,0007.14
2022-11-12 23:42:00,,0825.0,5.01,0.00,25.8,24.4,00.0,34.5,27.7,07.2,0002.5,0019.45,0007.98,0007.15
2022-11-12 23:43:00,,0825.0,4.99,0.00,25.8,24.4,00.0,34.5,27.7,07.3,0001.6,0021.78,0008.14,0007.16
2022-11-12 23:44:00,,0825.0,5.01,0.00,25.8,24.4,00.0,34.5,27.7,07.3,0000.0,0022.02,0008.24,0007.19
2022-11-12 23:45:00,,0825.0,5.01,0.00,25.8,24.4,00.0,34.5,27.7,07.3,-000.3,0021.94,0008.30,0007.22
2022-11-12 23:46:00,,0825.1,4.99,0.00,25.8,24.4,00.0,34.5,27.6,07.3,-000.3,0022.11,0008.33,0007.24
2022-11-12 23:47:00,,0825.0,4.99,0.00,25.8,24.4,00.0,34.5,27.7,07.3,-000.3,0021.35,0008.43,0007.29
2022-11-12 23:48:00,,0825.0,5.00,0.00,25.8,24.4,00.0,34.5,27.7,07.3,-000.6,0022.15,0008.51,0007.31
2022-11-12 23:49:00,,0825.0,5.00,0.00,25.8,24.3,00.0,34.5,27.7,07.3,-001.3,0022.92,0008.54,0007.33
2022-11-12 23:50:00,,0825.0,5.00,0.00,25.8,24.3,00.0,34.5,27.7,07.2,-001.1,0022.81,0008.57,0007.33
2022-11-12 23:51:00,,0825.1,5.00,0.00,25.8,24.3,00.0,34.5,27.7,07.1,-001.3,0022.91,0008.59,0007.35
2022-11-12 23:52:00,,0825.0,5.01,0.00,25.8,24.3,00.0,34.5,27.7,07.1,-000.9,0022.05,0008.49,0007.33
2022-11-12 23:53:00,,0825.0,5.01,0.00,25.8,24.3,00.0,34.5,27.6,07.1,0000.6,0020.32,0008.37,0007.31
2022-11-12 23:54:00,,0825.0,5.00,0.00,25.7,24.3,00.0,34.5,27.6,07.1,0000.8,0017.43,0008.20,0007.28
2022-11-12 23:55:00,,0825.0,5.00,0.00,25.7,24.3,00.0,34.5,27.6,07.1,0002.1,0015.80,0008.09,0007.23
2022-11-12 23:56:00,,0825.0,4.99,0.00,25.7,24.3,00.0,34.5,27.6,07.1,0003.2,0015.46,0008.01,0007.19
2022-11-12 23:57:00,,0825.0,5.00,0.00,25.7,24.2,00.0,34.5,27.6,07.1,0003.5,0014.90,0007.92,0007.14
2022-11-12 23:58:00,,0825.0,5.01,0.00,25.7,24.2,00.0,34.5,27.6,07.0,0003.6,0014.86,0007.81,0007.08
2022-11-12 23:59:00,,0825.0,5.00,0.00,25.7,24.2,00.0,34.5,27.6,07.0,0004.3,0014.55,0007.67,0007.01
